User: anonymous   Login
Location: Valley View Observatory
(41.0081°N, 76.5874°W)
Time: 04:18:12
(UTC-04:00)
Language:

Cosmos 2237 Rocket - Orbit

View from above orbital plane
View from above orbital plane
View from above satellite
View from above satellite

Ground track
Ground track

The orbit data is extracted from the following two-line orbital elements,

1 22566U 93016B   15213.59692500 -.00000227  00000-0 -92973-4 0  9995
2 22566 071.0077 065.9682 0007981 097.6315 262.5714 14.14908466154298
Epoch (UTC): 01 August 2015 14:19:34
Eccentricity: 0.0007981
inclination: 71.0077°
perigee height: 837 km
apogee height: 848 km
right ascension of ascending node: 65.9682°
argument of perigee: 97.6315°
revolutions per day: 14.14908466
mean anomaly at epoch: 262.5714°
orbit number at epoch: 15429

The dashed part of the orbit path shows where the satellite is in the earth's shadow,  

DLR